Tracking 19562 objects as of 22-Mar-2019
HD Live streaming from Space Station
objects crossing your sky now

HOT BIRD 1

Track HOT BIRD 1 now!
HOT BIRD 1 is classified as:


NORAD ID: 23537
Int'l Code: 1995-016B
Perigee: 36,038.7 km
Apogee: 36,087.7 km
Inclination: 9.9 °
Period: 1,449.9 minutes
Semi major axis: 42434 km
RCS: 7.9621 m2 (large)
Launch date: March 28, 1995
Source: European Telecommunications Satellite Organization (EUTE)
Launch site: FRENCH GUIANA (FRGUI)

Cable programming; direct-to-home broadcasting; 16 channels, Western Europe
aabbcc
Your satellite tracking list
Your tracking list is empty




NASA's NSSDC Master Catalog

Two Line Element Set (TLE):
1 23537U 95016B   19080.62047139 -.00000085  00000-0  00000+0 0  9994
2 23537   9.8518  40.1638 0005776 346.1284 205.8545  0.99318321 87457
Source of the keplerian elements: AFSPC